Tracking 30995 objects as of 7-Jul-2025
HD Live streaming from Space Station
objects crossing your sky now

STARLINK-4075

Track STARLINK-4075 now!
10-day predictions
STARLINK-4075 is classified as:


NORAD ID: 52670
Int'l Code: 2022-053Q
Perigee: 545.9 km
Apogee: 547.8 km
Inclination: 53.2 °
Period: 95.4 minutes
Semi major axis: 6917 km
RCS: Unknown
Launch date: May 18, 2022
Source: United States (US)
Launch site: AIR FORCE EASTERN TEST RANGE (AFETR)
Your satellite tracking list
IRIDIUM 149
Track 1 satellite(s)




NASA's NSSDC Master Catalog

Two Line Element Set (TLE):
1 52670U 22053Q   25187.38856466  .00000296  00000-0  36700-4 0  9998
2 52670  53.2162 179.8772 0001342  67.3039 292.8095 15.08844620173868
Source of the keplerian elements: AFSPC